Location: Anjeux
(47.8815°N, 6.2076°E)
Time: 03:48:56
(UTC+00:00)

AAUSAT CUBESAT 2 - Visible Passes

Search period start: 29 November 2021 00:00
Search period end: 09 December 2021 00:00
Orbit: 570 x 588 km, 97.5° (Epoch: 28 November)

Date Brightness Start Highest point End Pass type
(mag) Time Alt. Az. Time Alt. Az. Time Alt. Az.
29 Nov ? 03:32:46 10° ENE 03:34:24 12° E 03:36:03 10° ESE visible
29 Nov ? 05:06:08 10° N 05:10:13 70° WNW 05:14:17 10° SSW visible
30 Nov ? 03:37:06 10° ENE 03:39:11 14° E 03:41:16 10° ESE visible
30 Nov ? 05:10:53 10° N 05:14:55 62° WNW 05:18:58 10° SSW visible
01 Dec ? 03:41:31 10° NE 03:43:58 15° E 03:46:22 10° SE visible
01 Dec ? 05:15:37 10° N 05:19:38 55° WNW 05:23:38 10° SSW visible
02 Dec ? 03:46:00 10° NE 03:48:44 17° E 03:51:26 10° SE visible
02 Dec ? 05:20:22 10° N 05:24:20 49° WNW 05:28:17 10° SW visible
02 Dec ? 16:12:27 10° S 16:16:24 50° W 16:20:23 10° NNW visible
03 Dec ? 03:50:31 10° NE 03:53:29 19° E 03:56:25 10° SE visible
03 Dec ? 05:25:07 10° N 05:29:01 44° WNW 05:32:54 10° SW visible
03 Dec ? 16:17:14 10° S 16:21:07 44° W 16:25:03 10° NNW visible
04 Dec ? 03:55:04 10° NE 03:58:13 21° E 04:01:23 10° SE visible
04 Dec ? 05:29:52 10° N 05:33:42 39° WNW 05:37:32 10° SW visible
04 Dec ? 16:22:01 10° SSW 16:25:51 39° W 16:29:42 10° NNW visible
05 Dec ? 03:59:38 10° NE 04:02:58 23° E 04:06:18 10° SSE visible
05 Dec ? 05:34:38 10° N 05:38:23 35° WNW 05:42:07 10° SW visible
05 Dec ? 16:26:50 10° SSW 16:30:34 35° W 16:34:20 10° NNW visible
06 Dec ? 04:04:13 10° NE 04:07:42 26° E 04:11:10 10° SSE visible
06 Dec ? 05:39:24 10° N 05:43:03 32° WNW 05:46:42 10° SW visible
06 Dec ? 16:31:40 10° SSW 16:35:18 31° W 16:38:57 10° NNW visible
07 Dec ? 04:08:49 10° NNE 04:12:26 29° E 04:16:03 10° SSE visible
07 Dec ? 05:44:11 10° N 05:47:43 29° WNW 05:51:15 10° SW visible
07 Dec ? 16:36:31 10° SSW 16:40:01 28° W 16:43:34 10° NW visible
08 Dec ? 04:13:25 10° NNE 04:17:09 32° E 04:20:53 10° SSE visible
08 Dec ? 05:48:57 10° N 05:52:22 26° WNW 05:55:48 10° WSW visible
08 Dec ? 16:41:22 10° SSW 16:44:45 25° W 16:48:09 10° NW visible
